Weather History for KGRI - April, 2013

Change the Weather History Date:

Saturday, April 20, 2013

  Actual Average Record
Temperature  
Mean Temperature 40 °F 52 °F  
Max Temperature 49 °F 65 °F 98 °F (1902)
Min Temperature 31 °F 40 °F 21 °F (1953)
Degree Days  
Heating Degree Days 25 13  
Month to date heating degree days 447 330  
Since 1 July heating degree days 5804 5887  
Cooling Degree Days 0 1  
Month to date cooling degree days 0 1  
Year to date cooling degree days 0 1  
Moisture  
Dew Point 28 °F    
Average Humidity 66    
Maximum Humidity 85    
Minimum Humidity 46    
Precipitation  
Precipitation 0.00 in 0.10 in 1.40 in (1951)
Month to date precipitation 2.95 1.53  
Year to date precipitation 5.72 4.54  
Snow  
Snow 0.00 in 0.00 in 1.00 in (1941)
Month to date snowfall 6.9 1.3  
Since 1 July snowfall 34.5 28.8  
Snow Depth 0.00 in    
Sea Level Pressure  
Sea Level Pressure 30.14 in    
Wind  
Wind Speed 12 mph (ESE)    
Max Wind Speed 24 mph    
Max Gust Speed 31 mph    
Visibility 10 miles    
Events      
T = Trace of Precipitation, MM = Missing Value Source: NWS Daily Summary

Daily Weather History Graph

Daily Weather History Graph

Search for Another Location

Airport or City:

Trip Planner

Search our weather history database for the weather conditions in past years. The results will help you decide how hot, cold, wet, or windy it might be!

Date:

Astronomy

Apr. 20, 2013 Rise Set
Actual Time 6:46 AM CDT 8:18 PM CDT
Civil Twilight 6:17 AM CDT 8:47 PM CDT
Nautical Twilight 5:42 AM CDT 9:22 PM CDT
Astronomical Twilight 5:05 AM CDT 9:59 PM CDT
Moon 3:01 PM CDT (4/20) 3:38 AM CDT (4/20)
Length of Visible Light 14h 30m
Length of Day
13h 32m
Waxing Gibbous, 71% of the Moon is Illuminated
Apr 20
Waxing Gibbous
Apr 25
Full
May 2
Last Quarter
May 9
New
May 17
First Quarter

Hourly Weather History & Observations

Time (CDT) Temp. Windchill Dew Point Humidity Pressure Visibility Wind Dir Wind Speed Gust Speed Precip Events Conditions
12:53 AM 32.0 °F 28.7 °F 26.1 °F 79% 30.13 in 10.0 mi ESE 3.5 mph - N/A   Clear
1:53 AM 30.9 °F - 25.0 °F 79% 30.14 in 10.0 mi Calm Calm - N/A   Clear
2:53 AM 30.9 °F 27.5 °F 26.1 °F 82% 30.16 in 10.0 mi SE 3.5 mph - N/A   Scattered Clouds
3:53 AM 32.0 °F 25.6 °F 25.0 °F 75% 30.14 in 10.0 mi East 6.9 mph - N/A   Overcast
4:53 AM 32.0 °F 26.4 °F 25.0 °F 75% 30.15 in 10.0 mi ESE 5.8 mph - N/A   Overcast
5:53 AM 32.0 °F 26.4 °F 24.1 °F 73% 30.17 in 10.0 mi SE 5.8 mph - N/A   Overcast
6:53 AM 32.0 °F 26.4 °F 24.1 °F 73% 30.17 in 10.0 mi East 5.8 mph - N/A   Overcast
7:19 AM 32.0 °F 24.8 °F 24.8 °F 75% 30.13 in 10.0 mi ESE 8.1 mph - N/A   Overcast
7:53 AM 32.0 °F 23.0 °F 24.1 °F 73% 30.17 in 10.0 mi ESE 11.5 mph - N/A   Overcast
8:53 AM 34.0 °F 26.6 °F 25.0 °F 70% 30.20 in 10.0 mi ESE 9.2 mph - N/A   Mostly Cloudy
9:53 AM 37.0 °F 28.1 °F 27.0 °F 67% 30.21 in 10.0 mi ESE 15.0 mph - N/A   Partly Cloudy
10:53 AM 39.9 °F 31.1 °F 28.0 °F 63% 30.20 in 10.0 mi SE 17.3 mph - N/A   Partly Cloudy
11:53 AM 42.1 °F 33.3 °F 28.0 °F 58% 30.19 in 10.0 mi ESE 19.6 mph - N/A   Clear
12:53 PM 43.0 °F 34.5 °F 28.0 °F 56% 30.17 in 10.0 mi ESE 19.6 mph 26.5 mph N/A   Clear
1:53 PM 46.0 °F 38.0 °F 30.0 °F 54% 30.14 in 10.0 mi ESE 21.9 mph 27.6 mph N/A   Partly Cloudy
2:53 PM 48.0 °F - 30.9 °F 52% 30.12 in 10.0 mi ESE 18.4 mph 24.2 mph N/A   Clear
3:53 PM 48.0 °F - 30.0 °F 50% 30.11 in 10.0 mi SE 23.0 mph 27.6 mph N/A   Partly Cloudy
4:53 PM 48.0 °F - 28.9 °F 48% 30.09 in 10.0 mi SE 20.7 mph - N/A   Scattered Clouds
5:53 PM 46.9 °F - 28.0 °F 48% 30.08 in 10.0 mi SE 21.9 mph - N/A   Mostly Cloudy
6:53 PM 46.9 °F - 30.0 °F 52% 30.10 in 10.0 mi ESE 13.8 mph - N/A   Mostly Cloudy
7:53 PM 46.0 °F 40.6 °F 32.0 °F 58% 30.11 in 10.0 mi ESE 11.5 mph - N/A   Clear
8:53 PM 43.0 °F 36.8 °F 30.9 °F 62% 30.11 in 10.0 mi ESE 11.5 mph - N/A   Clear
9:53 PM 42.1 °F 36.1 °F 30.0 °F 62% 30.13 in 10.0 mi ESE 10.4 mph - N/A   Clear
10:53 PM 39.9 °F 34.5 °F 30.0 °F 68% 30.13 in 10.0 mi East 8.1 mph - N/A   Clear
11:53 PM 37.9 °F 32.7 °F 30.0 °F 73% 30.12 in 10.0 mi East 6.9 mph - N/A   Clear